Weather History for Bad Axe, MI

Change the Weather History Date:

Thursday, November 29, 2012

  Actual Average (KP58) Record (KP58)
Temperature  
Mean Temperature 32 °F -  
Max Temperature 43 °F 38 °F 62 °F (2006)
Min Temperature 22 °F 29 °F 18 °F (2013)
Degree Days  
Heating Degree Days 32    
Moisture  
Dew Point 29 °F    
Average Humidity 77    
Maximum Humidity 88    
Minimum Humidity 65    
Precipitation  
Precipitation 0.00 in - - ()
Sea Level Pressure  
Sea Level Pressure 30.20 in    
Wind  
Wind Speed 8 mph (WSW)    
Max Wind Speed 15 mph    
Max Gust Speed 22 mph    
Visibility 10 miles    
Events      
Averages and records for this station are not official NWS values.
T = Trace of Precipitation, MM = Missing Value Source: NWS Daily Summary

Daily Weather History Graph

Daily Weather History Graph

Search for Another Location

Airport:

Trip Planner

Search our weather history database for the weather conditions in past years. The results will help you decide how hot, cold, wet, or windy it might be!

Date:

Astronomy

Nov. 29, 2012 Rise Set
Actual Time 7:44 AM EST 4:56 PM EST
Civil Twilight 7:12 AM EST 5:28 PM EST
Nautical Twilight 6:36 AM EST 6:04 PM EST
Astronomical Twilight 6:01 AM EST 6:38 PM EST
Moon 5:58 PM EST (11/29) 8:30 AM EST (11/29)
Length of Visible Light 10h 16m
Length of Day
9h 12m
Full, 99% of the Moon is Illuminated
Nov 29
Full
Dec 6
Last Quarter
Dec 13
New
Dec 20
First Quarter
Dec 28
Full

Hourly Weather History & Observations

Time (EST) Temp. Windchill Dew Point Humidity Pressure Visibility Wind Dir Wind Speed Gust Speed Precip Events Conditions
12:14 AM 24.3 °F 18.4 °F 19.2 °F 81% 30.23 in 10.0 mi SSW 4.6 mph - N/A   Clear
12:35 AM 22.8 °F 16.7 °F 18.1 °F 82% 30.22 in 10.0 mi SSW 4.6 mph - N/A   Clear
12:54 AM 25.5 °F 16.9 °F 20.3 °F 81% 30.22 in 10.0 mi SW 8.1 mph - N/A   Clear
1:14 AM 26.6 °F 18.2 °F 20.7 °F 78% 30.22 in 10.0 mi SW 8.1 mph - N/A   Clear
1:35 AM 26.4 °F 16.6 °F 21.0 °F 80% 30.21 in 10.0 mi SW 10.4 mph - N/A   Clear
1:54 AM 27.1 °F 19.7 °F 22.1 °F 81% 30.20 in 10.0 mi SSW 6.9 mph - N/A   Clear
2:15 AM 27.9 °F 19.1 °F 23.4 °F 83% 30.20 in 10.0 mi SSW 9.2 mph - N/A   Clear
2:35 AM 28.4 °F 18.0 °F 23.9 °F 83% 30.21 in 10.0 mi SW 12.7 mph - N/A   Clear
2:54 AM 29.7 °F 22.0 °F 24.8 °F 82% 30.21 in 10.0 mi SW 8.1 mph - N/A   Clear
3:15 AM 29.7 °F 21.3 °F 24.6 °F 81% 30.21 in 10.0 mi SW 9.2 mph - N/A   Clear
3:35 AM 30.0 °F 23.2 °F 24.8 °F 81% 30.20 in 10.0 mi SW 6.9 mph - N/A   Clear
3:54 AM 30.7 °F 22.6 °F 25.2 °F 80% 30.20 in 10.0 mi SW 9.2 mph - N/A   Clear
4:15 AM 31.6 °F 24.4 °F 25.5 °F 78% 30.20 in 10.0 mi WSW 8.1 mph - N/A   Clear
4:34 AM 32.0 °F 23.6 °F 25.7 °F 78% 30.19 in 10.0 mi WSW 10.4 mph 16.1 mph N/A   Scattered Clouds
4:54 AM 32.4 °F 24.0 °F 25.7 °F 76% 30.20 in 10.0 mi SW 10.4 mph 20.7 mph N/A   Scattered Clouds
5:15 AM 32.4 °F 24.0 °F 25.9 °F 77% 30.20 in 10.0 mi SW 10.4 mph 16.1 mph N/A   Scattered Clouds
5:34 AM 32.9 °F 25.9 °F 26.6 °F 78% 30.20 in 10.0 mi SW 8.1 mph - N/A   Mostly Cloudy
5:54 AM 33.6 °F 25.0 °F 27.1 °F 77% 30.19 in 10.0 mi WSW 11.5 mph - N/A   Overcast
6:15 AM 34.0 °F 26.0 °F 27.3 °F 77% 30.20 in 10.0 mi WSW 10.4 mph 17.3 mph N/A   Scattered Clouds
6:34 AM 34.2 °F 26.8 °F 27.3 °F 76% 30.20 in 10.0 mi WSW 9.2 mph - N/A   Clear
6:55 AM 34.7 °F 26.4 °F 27.5 °F 75% 30.20 in 10.0 mi WSW 11.5 mph - N/A   Mostly Cloudy
7:14 AM 34.2 °F 26.2 °F 27.3 °F 76% 30.21 in 10.0 mi WSW 10.4 mph - N/A   Overcast
7:34 AM 34.3 °F 25.5 °F 27.3 °F 76% 30.20 in 10.0 mi WSW 12.7 mph 16.1 mph N/A   Overcast
7:55 AM 34.3 °F 26.5 °F 26.6 °F 73% 30.20 in 10.0 mi WSW 10.4 mph 17.3 mph N/A   Scattered Clouds
8:14 AM 34.5 °F 27.3 °F 27.0 °F 74% 30.20 in 10.0 mi WSW 9.2 mph - N/A   Clear
8:34 AM 35.1 °F 27.4 °F 27.3 °F 73% 30.20 in 10.0 mi WSW 10.4 mph 16.1 mph N/A   Scattered Clouds
8:55 AM 35.6 °F 28.0 °F 27.7 °F 73% 30.20 in 10.0 mi SW 10.4 mph - N/A   Overcast
9:14 AM 36.0 °F 27.5 °F 28.2 °F 73% 30.20 in 10.0 mi SW 12.7 mph 16.1 mph N/A   Overcast
9:35 AM 36.9 °F 28.7 °F 29.1 °F 74% 30.19 in 10.0 mi SW 12.7 mph - N/A   Overcast
9:55 AM 37.6 °F 29.6 °F 29.8 °F 74% 30.20 in 10.0 mi WSW 12.7 mph 17.3 mph N/A   Overcast
10:14 AM 37.8 °F 30.2 °F 30.2 °F 74% 30.20 in 10.0 mi WSW 11.5 mph 19.6 mph N/A   Overcast
10:35 AM 38.3 °F 30.5 °F 30.7 °F 74% 30.20 in 10.0 mi WSW 12.7 mph 18.4 mph N/A   Overcast
10:55 AM 38.8 °F 30.4 °F 30.9 °F 73% 30.20 in 10.0 mi WSW 15.0 mph 18.4 mph N/A   Overcast
11:14 AM 39.0 °F 31.0 °F 30.9 °F 73% 30.20 in 10.0 mi WSW 13.8 mph - N/A   Overcast
11:35 AM 39.2 °F 33.0 °F 31.1 °F 73% 30.20 in 10.0 mi WSW 9.2 mph - N/A   Mostly Cloudy
11:55 AM 41.0 °F 35.2 °F 31.8 °F 70% 30.19 in 10.0 mi WSW 9.2 mph - N/A   Scattered Clouds
12:14 PM 41.4 °F 34.7 °F 32.0 °F 69% 30.18 in 10.0 mi WSW 11.5 mph - N/A   Clear
12:35 PM 41.9 °F 34.3 °F 32.2 °F 68% 30.19 in 10.0 mi West 15.0 mph 19.6 mph N/A   Clear
12:55 PM 42.4 °F 35.7 °F 32.2 °F 67% 30.18 in 10.0 mi West 12.7 mph 21.9 mph N/A   Scattered Clouds
1:14 PM 42.6 °F 35.9 °F 32.4 °F 67% 30.17 in 10.0 mi West 12.7 mph 19.6 mph N/A   Mostly Cloudy
1:35 PM 43.2 °F 37.4 °F 32.4 °F 66% 30.17 in 10.0 mi West 10.4 mph 18.4 mph N/A   Scattered Clouds
1:55 PM 43.2 °F 37.0 °F 32.2 °F 65% 30.16 in 10.0 mi West 11.5 mph 16.1 mph N/A   Scattered Clouds
2:14 PM 43.5 °F 37.5 °F 32.7 °F 66% 30.17 in 10.0 mi West 11.5 mph 16.1 mph N/A   Mostly Cloudy
2:35 PM 42.8 °F 37.5 °F 32.5 °F 67% 30.16 in 10.0 mi West 9.2 mph - N/A   Overcast
2:55 PM 42.4 °F 35.7 °F 32.5 °F 68% 30.16 in 10.0 mi West 12.7 mph 16.1 mph N/A   Overcast
3:15 PM 42.1 °F 36.6 °F 32.5 °F 69% 30.15 in 10.0 mi West 9.2 mph - N/A   Scattered Clouds
3:35 PM 42.3 °F 37.3 °F 32.4 °F 68% 30.16 in 10.0 mi West 8.1 mph - N/A   Clear
3:55 PM 40.6 °F 36.7 °F 32.0 °F 71% 30.17 in 10.0 mi WNW 5.8 mph - N/A   Mostly Cloudy
4:15 PM 39.2 °F 35.9 °F 32.0 °F 75% 30.17 in 7.0 mi NW 4.6 mph - N/A   Scattered Clouds
4:35 PM 37.6 °F - 32.0 °F 80% 30.17 in 7.0 mi Calm Calm - N/A   Clear
4:55 PM 37.9 °F - 32.0 °F 79% 30.18 in 7.0 mi Calm Calm - N/A   Scattered Clouds
5:15 PM 37.4 °F - 32.0 °F 81% 30.18 in 7.0 mi Calm Calm - N/A   Mostly Cloudy
5:35 PM 35.1 °F - 30.7 °F 84% 30.19 in 7.0 mi Calm Calm - N/A   Overcast
5:55 PM 35.2 °F - 31.1 °F 85% 30.19 in 7.0 mi Calm Calm - N/A   Overcast
6:15 PM 36.5 °F 33.9 °F 32.0 °F 84% 30.20 in 7.0 mi NNE 3.5 mph - N/A   Overcast
6:35 PM 37.4 °F 34.9 °F 32.4 °F 82% 30.21 in 7.0 mi NNE 3.5 mph - N/A   Overcast
6:55 PM 37.6 °F 35.1 °F 32.0 °F 80% 30.21 in 7.0 mi NE 3.5 mph - N/A   Overcast
7:15 PM 37.4 °F 33.8 °F 32.0 °F 81% 30.22 in 7.0 mi NE 4.6 mph - N/A   Overcast
7:35 PM 37.2 °F 31.9 °F 32.0 °F 81% 30.22 in 7.0 mi ENE 6.9 mph - N/A   Overcast
7:55 PM 37.0 °F 31.6 °F 32.4 °F 83% 30.22 in 7.0 mi ENE 6.9 mph - N/A   Overcast
8:15 PM 36.9 °F 32.2 °F 32.4 °F 84% 30.23 in 10.0 mi NE 5.8 mph - N/A   Overcast
8:35 PM 37.0 °F 32.4 °F 32.4 °F 83% 30.23 in 10.0 mi ENE 5.8 mph - N/A   Overcast
8:55 PM 37.0 °F 33.3 °F 32.0 °F 82% 30.23 in 10.0 mi ENE 4.6 mph - N/A   Overcast
9:15 PM 37.0 °F 32.4 °F 32.0 °F 82% 30.24 in 10.0 mi NE 5.8 mph - N/A   Overcast
9:35 PM 36.9 °F 30.7 °F 32.0 °F 83% 30.24 in 10.0 mi NE 8.1 mph - N/A   Overcast
9:55 PM 37.0 °F 29.8 °F 33.3 °F 86% 30.24 in 10.0 mi NE 10.4 mph - N/A   Overcast
10:15 PM 36.3 °F 28.9 °F 32.4 °F 86% 30.24 in 10.0 mi ENE 10.4 mph 17.3 mph N/A   Overcast
10:35 PM 35.6 °F 28.0 °F 32.0 °F 87% 30.24 in 10.0 mi ENE 10.4 mph 16.1 mph N/A   Overcast
10:55 PM 35.6 °F 29.9 °F 32.0 °F 87% 30.24 in 10.0 mi ENE 6.9 mph - N/A   Overcast
11:14 PM 35.2 °F 30.3 °F 32.0 °F 88% 30.24 in 10.0 mi ENE 5.8 mph - N/A   Overcast
11:34 PM 35.6 °F 30.7 °F 32.0 °F 87% 30.24 in 10.0 mi ENE 5.8 mph - N/A   Overcast
11:55 PM 35.6 °F 29.2 °F 32.2 °F 87% 30.25 in 10.0 mi ENE 8.1 mph - N/A   Overcast